| time (UTC) | temp F | wind direction | speed MPH | gust MPH | rain 1hr in | rain 24hr in | rain mn in | humidity % | barometer mb |
| 20260505213028 | 54 | 34 | 6.0 | 16.0 | 0.00 | 0.00 | 0.00 | 73 | 1009.3 |
| 20260505211523 | 54 | 58 | 10.0 | 17.0 | 0.00 | 0.00 | 0.00 | 73 | 1009.7 |
| 20260505210022 | 54 | 6 | 9.0 | 15.0 | 0.00 | 0.00 | 0.00 | 74 | 1009.3 |
| 20260505204522 | 54 | 21 | 6.0 | 16.0 | 0.00 | 0.00 | 0.00 | 75 | 1009.5 |
| 20260505203022 | 54 | 328 | 6.0 | 15.0 | 0.00 | 0.00 | 0.00 | 75 | 1009.9 |
| 20260505201515 | 54 | 60 | 7.0 | 15.0 | 0.00 | 0.00 | 0.00 | 75 | 1009.1 |
| 20260505200027 | 55 | 43 | 5.0 | 15.0 | 0.00 | 0.00 | 0.00 | 76 | 1008.9 |
| 20260505194515 | 54 | 32 | 6.0 | 14.0 | 0.00 | 0.00 | 0.00 | 78 | 1008.9 |
| 20260505193012 | 54 | 57 | 6.0 | 19.0 | 0.00 | 0.00 | 0.00 | 79 | 1008.9 |
| 20260505191510 | 54 | 32 | 6.0 | 13.0 | 0.00 | 0.00 | 0.00 | 80 | 1008.8 |
| 20260505190008 | 55 | 25 | 5.0 | 16.0 | 0.00 | 0.00 | 0.00 | 81 | 1008.6 |
| 20260505184503 | 55 | 58 | 6.0 | 18.0 | 0.00 | 0.00 | 0.00 | 80 | 1008.5 |
| 20260505183107 | 56 | 8 | 5.0 | 16.0 | 0.00 | 0.00 | 0.00 | 79 | 1008.4 |
| 20260505181556 | 57 | 44 | 8.0 | 16.0 | 0.00 | 0.00 | 0.00 | 78 | 1008.2 |
| 20260505180053 | 57 | 54 | 5.0 | 14.0 | 0.00 | 0.00 | 0.00 | 79 | 1007.9 |
| 20260505174552 | 56 | 46 | 6.0 | 14.0 | 0.00 | 0.00 | 0.00 | 80 | 1007.7 |
| 20260505173051 | 57 | 19 | 5.0 | 11.0 | 0.00 | 0.00 | 0.00 | 80 | 1007.5 |
| 20260505171548 | 56 | 18 | 8.0 | 17.0 | 0.00 | 0.00 | 0.00 | 81 | 1007.2 |
| 20260505170044 | 56 | 52 | 7.0 | 14.0 | 0.00 | 0.00 | 0.00 | 82 | 1006.9 |
| 20260505164556 | 57 | 13 | 9.0 | 15.0 | 0.00 | 0.00 | 0.00 | 82 | 1006.7 |
| 20260505163043 | 57 | 56 | 8.0 | 15.0 | 0.00 | 0.00 | 0.00 | 83 | 1006.3 |
| 20260505161535 | 57 | 41 | 9.0 | 18.0 | 0.00 | 0.00 | 0.00 | 82 | 1005.7 |
| 20260505153023 | 60 | 20 | 7.0 | 19.0 | 0.00 | 0.00 | 0.00 | 82 | 1004.3 |
| 20260505151519 | 62 | 53 | 8.0 | 17.0 | 0.00 | 0.00 | 0.00 | 82 | 1003.8 |
| 20260505124556 | 68 | 356 | 0.0 | 0.0 | 0.00 | 0.00 | 0.00 | 83 | 1001.4 |
| 20260505123104 | 68 | 356 | 0.0 | 0.0 | 0.00 | 0.00 | 0.00 | 81 | 1001.3 |
| 20260505121552 | 68 | 356 | 0.0 | 1.0 | 0.00 | 0.00 | 0.00 | 80 | 1001.0 |
| 20260505120048 | 69 | 356 | 0.0 | 1.0 | 0.00 | 0.00 | 0.00 | 79 | 1000.8 |
| 20260505114546 | 70 | 29 | 0.0 | 3.0 | 0.00 | 0.00 | 0.00 | 76 | 1000.6 |
| 20260505113042 | 70 | 208 | 0.0 | 2.0 | 0.00 | 0.00 | 0.00 | 74 | 1000.1 |
| 20260505111549 | 72 | 238 | 1.0 | 11.0 | 0.00 | 0.00 | 0.00 | 73 | 999.2 |
| 20260505101531 | 72 | 226 | 7.0 | 15.0 | 0.00 | 0.00 | 0.00 | 72 | 998.4 |
| 20260505100040 | 73 | 200 | 6.0 | 14.0 | 0.00 | 0.00 | 0.00 | 72 | 998.5 |
| 20260505094525 | 73 | 207 | 6.0 | 13.0 | 0.00 | 0.00 | 0.00 | 72 | 998.4 |
| 20260505093025 | 73 | 231 | 6.0 | 12.0 | 0.00 | 0.00 | 0.00 | 72 | 998.3 |
| 20260505091523 | 73 | 161 | 6.0 | 14.0 | 0.00 | 0.00 | 0.00 | 72 | 998.3 |
| 20260505090031 | 73 | 250 | 7.0 | 15.0 | 0.00 | 0.00 | 0.00 | 72 | 998.6 |
| 20260505084524 | 73 | 189 | 6.0 | 16.0 | 0.00 | 0.00 | 0.00 | 72 | 998.7 |
| 20260505083031 | 73 | 210 | 6.0 | 14.0 | 0.00 | 0.00 | 0.00 | 72 | 998.8 |
| 20260505081517 | 73 | 181 | 7.0 | 17.0 | 0.00 | 0.00 | 0.00 | 72 | 999.0 |
| 20260505080020 | 73 | 212 | 5.0 | 15.0 | 0.00 | 0.00 | 0.00 | 72 | 999.1 |
| 20260505074511 | 73 | 153 | 8.0 | 16.0 | 0.00 | 0.00 | 0.00 | 73 | 999.2 |
| 20260505073009 | 73 | 197 | 6.0 | 14.0 | 0.00 | 0.00 | 0.00 | 72 | 999.3 |
| 20260505071508 | 73 | 240 | 7.0 | 16.0 | 0.00 | 0.00 | 0.00 | 72 | 999.5 |
| 20260505070003 | 73 | 191 | 6.0 | 15.0 | 0.00 | 0.00 | 0.00 | 72 | 999.6 |
| 20260505064501 | 73 | 177 | 5.0 | 14.0 | 0.00 | 0.00 | 0.00 | 72 | 999.9 |
| 20260505063101 | 73 | 248 | 7.0 | 15.0 | 0.00 | 0.00 | 0.00 | 71 | 999.9 |
| 20260505061624 | 73 | 164 | 8.0 | 15.0 | 0.00 | 0.00 | 0.00 | 72 | 1000.0 |
| 20260505060055 | 73 | 231 | 7.0 | 12.0 | 0.00 | 0.00 | 0.00 | 72 | 1000.2 |
| 20260505054603 | 73 | 227 | 6.0 | 17.0 | 0.00 | 0.00 | 0.00 | 71 | 1000.3 |
| 20260505053048 | 73 | 219 | 7.0 | 15.0 | 0.00 | 0.00 | 0.00 | 71 | 1000.5 |
| 20260505051547 | 73 | 162 | 8.0 | 17.0 | 0.00 | 0.00 | 0.00 | 71 | 1000.7 |
| 20260505041542 | 74 | 201 | 7.0 | 14.0 | 0.00 | 0.00 | 0.00 | 70 | 1001.1 |
| 20260505040041 | 74 | 179 | 9.0 | 16.0 | 0.00 | 0.00 | 0.00 | 69 | 1001.3 |
| 20260505034640 | 75 | 191 | 6.0 | 15.0 | 0.00 | 0.00 | 0.00 | 69 | 1001.3 |
| 20260505033047 | 75 | 216 | 5.0 | 13.0 | 0.00 | 0.00 | 0.00 | 68 | 1001.3 |
| 20260505031537 | 75 | 220 | 6.0 | 13.0 | 0.00 | 0.00 | 0.00 | 67 | 1001.1 |
| 20260505030037 | 76 | 221 | 7.0 | 19.0 | 0.00 | 0.00 | 0.00 | 66 | 1000.8 |
| 20260505024601 | 76 | 199 | 6.0 | 15.0 | 0.00 | 0.00 | 0.00 | 65 | 1000.6 |
| 20260505023038 | 76 | 196 | 5.0 | 12.0 | 0.00 | 0.00 | 0.00 | 64 | 1000.9 |
| 20260505021546 | 77 | 215 | 6.0 | 14.0 | 0.00 | 0.00 | 0.00 | 63 | 1000.5 |
| 20260505020035 | 77 | 216 | 6.0 | 20.0 | 0.00 | 0.00 | 0.00 | 62 | 1000.3 |
| 20260505014532 | 78 | 199 | 7.0 | 15.0 | 0.00 | 0.00 | 0.00 | 61 | 1000.4 |
| 20260505013032 | 78 | 173 | 8.0 | 15.0 | 0.00 | 0.00 | 0.00 | 60 | 1000.6 |
| 20260505011535 | 78 | 192 | 6.0 | 17.0 | 0.00 | 0.00 | 0.00 | 60 | 1000.5 |
| 20260505010027 | 79 | 217 | 5.0 | 12.0 | 0.00 | 0.00 | 0.00 | 59 | 1000.9 |
| 20260505004537 | 79 | 165 | 8.0 | 15.0 | 0.00 | 0.00 | 0.00 | 58 | 1000.7 |
| 20260505003026 | 80 | 195 | 7.0 | 16.0 | 0.00 | 0.00 | 0.00 | 56 | 1000.9 |
| 20260505001525 | 80 | 228 | 5.0 | 21.0 | 0.00 | 0.00 | 0.00 | 56 | 1000.9 |
| 20260505000022 | 81 | 177 | 6.0 | 19.0 | 0.00 | 0.00 | 0.00 | 54 | 1001.2 |
| 20260504234521 | 82 | 164 | 5.0 | 14.0 | 0.00 | 0.00 | 0.00 | 52 | 1001.3 |
| 20260504233019 | 82 | 238 | 4.0 | 13.0 | 0.00 | 0.00 | 0.00 | 53 | 1001.5 |
| 20260504231517 | 82 | 195 | 5.0 | 11.0 | 0.00 | 0.00 | 0.00 | 52 | 1001.6 |
| 20260504230016 | 83 | 165 | 5.0 | 11.0 | 0.00 | 0.00 | 0.00 | 51 | 1001.8 |
| 20260504224614 | 82 | 178 | 6.0 | 11.0 | 0.00 | 0.00 | 0.00 | 49 | 1001.9 |
| 20260504223012 | 82 | 289 | 7.0 | 13.0 | 0.00 | 0.00 | 0.00 | 49 | 1002.1 |
| 20260504221510 | 82 | 127 | 5.0 | 16.0 | 0.00 | 0.00 | 0.00 | 49 | 1002.2 |
| 20260504220009 | 82 | 177 | 5.0 | 13.0 | 0.00 | 0.00 | 0.00 | 50 | 1002.4 |
| 20260504214506 | 82 | 232 | 6.0 | 12.0 | 0.00 | 0.00 | 0.00 | 49 | 1002.6 |